GAOFEN-2

Last updated on Sat Jun 14 2025 00:02:29 GMT+0000 (Coordinated Universal Time)

1 40118U 14049A 25164.58598335 .00001125 00000+0 15394-3 0 9999 2 40118 98.0596 223.2007 0004227 355.1751 4.9419 14.80524347584698
UTC large
Height (km)
Speed (km/s)
/
Latitude / Longitude
Inclination (degrees)
Orbital Period (minutes)
Azimuth
Elevation
Range (km)
Doppler Factor

Next 0 passes for location: London (51.5072 / 0.1276)

Sorry there are no passes over London.